DECAYED

STARLINK-1603, 46162 (Decayed)

Orbit data source: Space-Track

STARLINK-1603, 46162 was a payload satellite owned by SpaceX/Seattle (US) in LEO that was launched on Tue, 18 Aug 2020 UTC via an FALCON 9 launch vehicle from the Air Force Eastern Test Range (AFETR). Payload-class satellites include a variety of spacecraft equipped with specific instruments for various scientific and technological missions. These include communications satellites like Starlink; space stations such as the ISS; scientific satellites like the Hubble; Earth observation satellites from companies like Planet Labs, Umbra, and HawkEye 360; GPS; miniature CubeSats for education and research; and military/defense satellites.

Not visible in the next 10 days
Identifier
46162, 2020-057AX
Orbit
Decayed
Country
Flag of USUS
Related business
Manufacturer
SpaceX/Seattle
Mission
Decayed Commercial Communications
Bus & Motor
STARLINK, Unknown motor
Mass
260 kg wet, ~248 kg dry
Launch date (UTC)
2020-08-18 (6 years ago)
Launch vehicle
FALCON 9
Launch site
Air Force Eastern Test Range (AFETR)
Object type
Payload
Rocket body
Debris
Shape & HBR
Box + 1 Pan, 10.1 m
Radar Cross Section
13.562 m², Large (>1 m²)

Expand to show TLE details & history
Last TLE update: 1 year ago

TLE from 1 year ago
0 STARLINK-1603
1 46162U 20057AX  25058.23378653  .07149132  12426-4  10000-3 0  9990
2 46162  53.0139 134.4614 0011905 201.7931 255.2598 16.48085623251078
Epoch: 2025-02-27T05:36Z
TLE epoch observation values (Epoch: 2025-02-27T05:36:39.156Z)
Latitude
52.62178°
Longitude
-5.59345°
Altitude
152.71 km
Speed
7.82 km/s
True Right ascension
15h 43m 31s
True Declination
52° 26' 25"
Sunlit
Object was in full shadow at epoch
Visualization orbit readout
Latitude
Unknown
Longitude
Unknown
Altitude
Unknown
Speed
Unknown
Apparent Right ascension
Unknown
Apparent Declination
Unknown
Sunlit
N/A
Visualization observer readout
Local Sidereal Time
03:11:42
Azimuth
Unknown
Elevation
Unknown
Doppler factor
Unknown
Orbital elements
Apogee altitude
152.441 km
Perigee altitude
136.91 km
Semi-major axis
6,522.812 km
Eccentricity
0.00119
Inclination
53.0139°
RAAN
134.4614°
Arg. of periapsis
201.7931°
True anomaly
255.12792°
Mean anomaly
255.2598°
Eccentric anomaly
255.19385°
Mean motion
4.11994 °/min
Orbital period
87.38 mins
BSTAR
0.0001
Loading maneuver chart data...
Computing Atmospheric mass density...
Loading historical data...
Loading historical data...
Loading historical data...
Loading historical data...
Loading historical data...
Loading historical data...
Loading historical data...

Documentation

Showing up to 5 results
|